EW9394 Weather Reports


time (UTC)temp
F
wind
direction
speed
knots
gust
knots
rain 1hr
in
rain 24hr
in
rain mn
in
humidity
%
barometer
mb
20220524035358 68 22 2.6 4.3 0.00 0.00 0.00 82 1014.3
20220524034858 68 105 2.6 4.3 0.00 0.00 0.00 83 1014.4
20220524034357 68 39 3.5 5.2 0.00 0.00 0.00 83 1014.4
20220524033855 68 120 4.3 5.2 0.00 0.00 0.00 83 1014.6
20220524033355 68 50 2.6 4.3 0.00 0.00 0.00 82 1014.5
20220524032853 69 78 4.3 7.0 0.00 0.00 0.00 83 1014.6
20220524032352 69 12 3.5 7.0 0.00 0.00 0.00 83 1014.6
20220524031850 69 54 3.5 6.1 0.00 0.00 0.00 83 1014.7
20220524031349 69 51 1.7 6.1 0.00 0.00 0.00 82 1014.7
20220524030850 69 59 2.6 5.2 0.00 0.00 0.00 83 1015.1
20220524030349 69 74 2.6 4.3 0.00 0.00 0.00 83 1015.0
20220524025847 69 90 3.5 6.1 0.00 0.00 0.00 83 1015.0
20220524025346 70 44 1.7 2.6 0.00 0.00 0.00 82 1015.2
20220524024846 70 69 0.9 1.7 0.00 0.00 0.00 81 1015.4
20220524024345 70 349 0.9 0.9 0.00 0.00 0.00 82 1015.5
20220524023845 70 102 0.9 1.7 0.00 0.00 0.00 82 1015.3
20220524023343 70 44 1.7 2.6 0.00 0.00 0.00 81 1015.3
20220524022841 71 17 2.6 2.6 0.00 0.00 0.00 80 1015.2
20220524022341 71 87 1.7 2.6 0.00 0.00 0.00 81 1015.3
20220524021842 71 63 1.7 2.6 0.00 0.00 0.00 81 1015.1
20220524021340 71 46 2.6 4.3 0.00 0.00 0.00 80 1015.1
20220524020840 71 132 1.7 2.6 0.00 0.00 0.00 80 1015.1
20220524020339 71 70 2.6 4.3 0.00 0.00 0.00 80 1015.1
20220524015839 71 35 3.5 4.3 0.00 0.00 0.00 79 1015.1
20220524015339 72 57 3.5 5.2 0.00 0.00 0.00 78 1015.2
20220524014838 72 237 0.9 1.7 0.00 0.00 0.00 78 1014.9
20220524014337 72 72 1.7 2.6 0.00 0.00 0.00 78 1014.7
20220524013835 72 113 0.9 1.7 0.00 0.00 0.00 77 1014.9
20220524013333 73 81 1.7 1.7 0.00 0.00 0.00 77 1015.1
20220524012832 73 117 0.9 1.7 0.00 0.00 0.00 77 1014.6
20220524012331 73 60 1.7 1.7 0.00 0.00 0.00 77 1014.6
20220524011829 73 35 1.7 2.6 0.00 0.00 0.00 76 1014.6
20220524011328 74 67 2.6 4.3 0.00 0.00 0.00 75 1014.5
20220524010827 73 60 1.7 2.6 0.00 0.00 0.00 75 1014.7
20220524010325 74 91 2.6 2.6 0.00 0.00 0.00 75 1015.0
20220524005824 74 82 1.7 2.6 0.00 0.00 0.00 75 1014.5
20220524005323 75 43 1.7 1.7 0.00 0.00 0.00 73 1014.8
20220524004821 74 123 0.9 1.7 0.00 0.00 0.00 75 1014.7
20220524004322 75 164 0.9 0.9 0.00 0.00 0.00 74 1014.9
20220524003820 75 188 0.9 1.7 0.00 0.00 0.00 72 1014.7
20220524003318 75 43 0.9 2.6 0.00 0.00 0.00 73 1014.6
20220524002817 75 179 2.6 4.3 0.00 0.00 0.00 72 1014.6
20220524002316 75 144 0.9 0.9 0.00 0.00 0.00 72 1014.8
20220524001815 75 90 1.7 1.7 0.00 0.00 0.00 73 1014.6
20220524001314 75 98 0.9 0.9 0.00 0.00 0.00 73 1014.6
20220524000813 76 99 0.9 0.9 0.00 0.00 0.00 72 1014.8
20220524000311 75 32 0.9 1.7 0.00 0.00 0.00 73 1014.6
20220523235811 75 50 0.9 1.7 0.00 0.00 0.00 73 1014.7
20220523235309 76 50 2.6 6.1 0.00 0.00 0.00 72 1014.7
20220523234808 76 56 1.7 1.7 0.00 0.00 0.00 70 1014.5
20220523234307 76 30 3.5 5.2 0.00 0.00 0.00 70 1014.6
20220523233806 76 87 0.9 1.7 0.00 0.00 0.00 70 1014.7
20220523233304 76 68 1.7 2.6 0.00 0.00 0.00 70 1014.6
20220523232803 76 186 0.9 1.7 0.00 0.00 0.00 70 1014.6
20220523232302 77 74 2.6 4.3 0.00 0.00 0.00 69 1014.8
20220523231801 76 61 1.7 2.6 0.00 0.00 0.00 69 1014.8
20220523231259 76 68 0.9 1.7 0.00 0.00 0.00 69 1015.0
20220523230758 77 47 0.9 1.7 0.00 0.00 0.00 68 1015.0
20220523230257 76 188 1.7 1.7 0.00 0.00 0.00 69 1015.1
20220523225757 76 140 0.9 0.9 0.00 0.00 0.00 69 1015.2
20220523225255 77 95 2.6 2.6 0.00 0.00 0.00 68 1015.3
20220523224753 77 178 0.9 1.7 0.00 0.00 0.00 68 1015.2
20220523224253 77 86 0.9 1.7 0.00 0.00 0.00 68 1015.3
20220523223751 77 62 1.7 1.7 0.00 0.00 0.00 67 1015.3
20220523223251 78 41 0.9 1.7 0.00 0.00 0.00 66 1015.3
20220523222749 78 183 0.0 0.0 0.00 0.00 0.00 67 1015.5
20220523222249 79 139 1.7 1.7 0.00 0.00 0.00 64 1015.5
20220523221749 79 111 0.9 1.7 0.00 0.00 0.00 65 1015.4
20220523221248 79 74 0.0 0.9 0.00 0.00 0.00 66 1015.5
20220523220746 81 183 0.9 0.9 0.00 0.00 0.00 63 1015.5
20220523220246 81 253 0.9 0.9 0.00 0.00 0.00 62 1015.4
20220523215747 80 218 0.0 0.9 0.00 0.00 0.00 65 1015.0
20220523215245 80 105 1.7 2.6 0.00 0.00 0.00 63 1015.1
20220523214743 80 128 0.9 0.9 0.00 0.00 0.00 64 1014.9
20220523214241 81 174 3.5 5.2 0.00 0.00 0.00 62 1015.1
20220523213741 82 130 0.9 1.7 0.00 0.00 0.00 61 1015.0
20220523213241 81 104 0.9 1.7 0.00 0.00 0.00 61 1015.0
20220523212740 80 178 0.0 0.9 0.00 0.00 0.00 64 1015.1
20220523212239 79 228 0.9 1.7 0.00 0.00 0.00 65 1015.0
20220523211739 78 188 0.0 0.0 0.00 0.00 0.00 67 1014.9
20220523211238 79 181 0.9 0.9 0.00 0.00 0.00 64 1015.2
20220523210738 78 283 0.0 0.9 0.00 0.00 0.00 68 1015.2
20220523210237 78 67 2.6 4.3 0.00 0.00 0.00 69 1015.2
20220523205736 79 68 0.9 1.7 0.00 0.00 0.00 66 1015.4
20220523205235 79 74 0.9 1.7 0.00 0.00 0.00 66 1015.4
20220523204734 78 41 1.7 2.6 0.00 0.00 0.00 68 1015.4
20220523204232 79 198 0.9 1.7 0.00 0.00 0.00 64 1015.4
20220523203732 78 215 1.7 2.6 0.00 0.00 0.00 67 1015.8
20220523203231 77 153 0.0 0.9 0.00 0.00 0.00 69 1015.6
20220523202729 78 158 0.9 1.7 0.00 0.00 0.00 66 1015.6
20220523202228 77 166 0.9 0.9 0.00 0.00 0.00 70 1016.0
20220523201727 77 57 1.7 4.3 0.00 0.00 0.00 68 1016.1
20220523201227 77 126 1.7 2.6 0.00 0.00 0.00 68 1016.2
20220523200726 77 46 2.6 4.3 0.00 0.00 0.00 68 1016.1
20220523200225 77 88 0.9 1.7 0.00 0.00 0.00 69 1016.6
20220523195724 77 75 0.9 0.9 0.00 0.00 0.00 69 1016.6
20220523195223 77 96 0.9 1.7 0.00 0.00 0.00 69 1016.9
20220523194721 77 52 3.5 4.3 0.00 0.00 0.00 68 1017.0
20220523194220 76 66 2.6 4.3 0.00 0.00 0.00 70 1017.1
20220523193718 76 47 1.7 1.7 0.00 0.00 0.00 70 1017.2
20220523193218 75 69 0.9 1.7 0.00 0.00 0.00 73 1017.1
20220523192717 75 51 0.9 0.9 0.00 0.00 0.00 72 1016.8
20220523192215 76 98 0.9 2.6 0.00 0.00 0.00 72 1017.0
20220523191714 77 162 0.9 0.9 0.00 0.00 0.00 69 1017.1
20220523191213 77 338 2.6 2.6 0.00 0.00 0.00 69 1017.2
20220523190713 75 66 1.7 2.6 0.00 0.00 0.00 72 1017.4
20220523190212 75 165 0.0 0.9 0.00 0.00 0.00 72 1017.6
20220523185710 75 45 2.6 4.3 0.00 0.00 0.00 71 1017.8
20220523185209 76 224 0.9 0.9 0.00 0.00 0.00 70 1018.0
20220523184709 75 123 0.9 0.9 0.00 0.00 0.00 72 1017.9
20220523184207 75 178 0.9 2.6 0.00 0.00 0.00 72 1018.2
20220523183706 74 185 1.7 2.6 0.00 0.00 0.00 74 1018.1
20220523183205 75 83 1.7 2.6 0.00 0.00 0.00 73 1018.1
20220523182705 75 143 0.0 0.9 0.00 0.00 0.00 71 1018.2
20220523182205 73 67 1.7 2.6 0.00 0.00 0.00 75 1018.2
20220523181704 72 58 1.7 1.7 0.00 0.00 0.00 76 1018.5
20220523181205 72 58 1.7 2.6 0.00 0.00 0.00 77 1018.6
20220523180705 72 83 0.9 0.9 0.00 0.00 0.00 78 1018.7
20220523180204 73 32 0.9 0.9 0.00 0.00 0.00 77 1018.7
20220523175703 72 73 2.6 2.6 0.00 0.00 0.00 77 1018.6
20220523175202 72 220 1.7 1.7 0.00 0.00 0.00 78 1018.8
20220523174700 72 103 1.7 2.6 0.00 0.00 0.00 78 1018.7
20220523174158 71 56 0.0 0.0 0.00 0.00 0.00 79 1019.2
20220523173656 71 67 2.6 2.6 0.00 0.00 0.00 79 1018.9
20220523173155 71 50 2.6 4.3 0.00 0.00 0.00 79 1019.1
20220523172655 72 132 2.6 4.3 0.00 0.00 0.00 78 1018.9
20220523172156 72 137 0.9 1.7 0.00 0.00 0.00 78 1019.2
20220523171654 71 309 2.6 4.3 0.00 0.00 0.00 79 1018.9
20220523171152 71 59 1.7 2.6 0.00 0.00 0.00 80 1019.2
20220523170653 71 152 0.9 1.7 0.00 0.00 0.00 80 1019.3
20220523170151 71 275 1.7 2.6 0.00 0.00 0.00 80 1019.4
20220523165650 70 179 1.7 1.7 0.00 0.00 0.00 80 1019.4
20220523165148 70 124 0.9 2.6 0.00 0.00 0.00 82 1019.5
20220523164646 70 102 0.9 1.7 0.00 0.00 0.00 81 1019.3
20220523164145 69 48 2.6 2.6 0.00 0.00 0.00 83 1019.6
20220523163644 69 61 1.7 2.6 0.00 0.00 0.00 84 1019.7
20220523163143 69 66 0.0 0.9 0.00 0.00 0.00 85 1019.9
20220523162641 69 161 0.0 0.9 0.00 0.00 0.00 86 1019.7
20220523162141 68 48 1.7 1.7 0.00 0.00 0.00 86 1019.9
20220523161640 69 46 1.7 4.3 0.00 0.00 0.00 86 1019.7
20220523161140 69 66 0.9 0.9 0.00 0.00 0.00 86 1020.1
20220523160639 68 75 0.9 1.7 0.00 0.00 0.00 86 1020.1
20220523160137 68 95 0.9 0.9 0.00 0.00 0.00 88 1019.9
20220523155636 67 90 0.9 0.9 0.00 0.00 0.00 88 1020.3
20220523155135 67 177 1.7 2.6 0.00 0.00 0.00 89 1020.2
20220523154634 67 97 0.0 0.9 0.00 0.00 0.00 90 1020.6
20220523154132 67 127 0.0 0.9 0.00 0.00 0.00 90 1020.7
20220523153630 66 69 0.9 1.7 0.00 0.00 0.00 90 1020.7
20220523153130 66 77 0.9 0.9 0.00 0.00 0.00 91 1020.8
20220523152628 66 217 0.0 0.0 0.00 0.00 0.00 92 1021.0
20220523152127 66 185 0.0 0.0 0.00 0.00 0.00 93 1020.7
20220523151627 65 208 0.0 0.0 0.00 0.00 0.00 95 1020.8
20220523151126 65 12 0.9 0.9 0.00 0.00 0.00 96 1020.8
20220523150624 64 253 0.9 1.7 0.00 0.00 0.00 97 1020.7
20220523150123 64 172 0.0 0.9 0.00 0.00 0.00 98 1021.1
20220523145622 64 105 0.9 0.9 0.00 0.00 0.00 98 1021.0
20220523145121 64 67 0.0 0.9 0.00 0.00 0.00 99 1020.8
20220523144622 64 53 0.0 0.9 0.00 0.00 0.00 99 1021.0
20220523144120 64 128 0.0 0.9 0.00 0.00 0.00 99 1021.1
20220523143620 64 214 0.0 0.0 0.00 0.00 0.00 99 1020.9
20220523143119 63 53 0.0 0.9 0.00 0.00 0.00 99 1021.0
20220523142617 63 131 0.0 0.9 0.00 0.00 0.00 99 1021.0
20220523142115 63 81 0.0 0.0 0.00 0.00 0.00 99 1020.8
20220523141613 63 129 0.0 0.0 0.00 0.00 0.00 99 1021.0
20220523141112 63 89 0.9 1.7 0.00 0.00 0.00 99 1021.1
20220523140610 63 185 0.0 0.0 0.00 0.00 0.00 99 1021.0
20220523140109 63 46 1.7 1.7 0.00 0.00 0.00 99 1021.2
20220523135607 63 165 0.0 0.0 0.00 0.00 0.00 99 1021.0
20220523135106 63 214 0.0 0.0 0.00 0.00 0.00 99 1021.0
20220523134604 62 13 0.0 0.0 0.00 0.00 0.00 99 1021.1
20220523134103 63 210 0.0 0.9 0.00 0.00 0.00 99 1021.1
20220523133603 63 142 0.0 0.9 0.00 0.00 0.00 99 1021.1
20220523133102 62 108 0.0 0.0 0.00 0.00 0.00 99 1021.3
20220523132600 62 109 0.9 0.9 0.00 0.00 0.00 99 1021.2
20220523132100 62 161 0.0 0.0 0.00 0.00 0.00 99 1021.4
20220523131559 62 106 0.0 0.9 0.00 0.00 0.00 99 1021.3
20220523131058 62 153 0.9 0.9 0.00 0.00 0.00 99 1021.4
20220523130558 62 222 0.9 1.7 0.00 0.00 0.00 99 1021.2
20220523130057 62 80 0.9 1.7 0.00 0.00 0.00 99 1021.4
20220523125556 62 198 0.0 0.0 0.00 0.00 0.00 99 1021.2
20220523125055 62 129 1.7 1.7 0.00 0.00 0.00 99 1021.2
20220523124554 62 142 0.0 0.0 0.00 0.00 0.00 99 1021.3
20220523124052 62 104 0.9 0.9 0.00 0.00 0.00 99 1021.2
20220523123551 62 61 0.9 0.9 0.00 0.00 0.00 99 1021.2
20220523123050 62 71 0.0 0.0 0.00 0.00 0.00 99 1021.1
20220523122549 62 65 0.0 0.9 0.00 0.00 0.00 99 1020.9
20220523122048 62 51 0.9 0.9 0.00 0.00 0.00 99 1021.0
20220523121547 62 58 0.0 0.9 0.00 0.00 0.00 99 1020.9
20220523121046 62 59 0.0 0.0 0.00 0.00 0.00 99 1020.9
20220523120544 62 202 0.0 0.0 0.00 0.00 0.00 99 1020.9
20220523120043 62 203 0.0 0.9 0.00 0.00 0.00 99 1020.8
20220523115543 62 196 0.9 0.9 0.00 0.00 0.00 99 1020.6
20220523115042 62 154 0.0 0.9 0.00 0.00 0.00 99 1020.7
20220523114541 62 348 1.7 2.6 0.00 0.00 0.00 99 1020.4
20220523114039 62 106 0.9 1.7 0.00 0.00 0.00 99 1020.6
20220523113538 62 50 0.9 1.7 0.00 0.00 0.00 99 1020.5
20220523113038 62 29 2.6 5.2 0.00 0.00 0.00 99 1020.5
20220523112537 62 73 1.7 2.6 0.00 0.00 0.00 99 1020.2
20220523112035 61 145 0.0 0.9 0.00 0.00 0.00 99 1020.4
20220523111534 61 202 0.0 0.0 0.00 0.00 0.00 99 1020.4
20220523111033 61 223 0.0 0.9 0.00 0.00 0.00 99 1020.5
20220523110533 61 211 0.9 0.9 0.00 0.00 0.00 99 1020.4
20220523110033 61 230 0.0 0.0 0.00 0.00 0.00 99 1020.4
20220523105532 61 280 0.0 0.9 0.00 0.00 0.00 99 1020.4
20220523105031 61 199 0.0 0.0 0.00 0.00 0.00 99 1020.4
20220523104531 61 206 0.0 0.9 0.00 0.00 0.00 99 1020.3
20220523104029 61 203 0.0 0.0 0.00 0.00 0.00 99 1020.5
20220523103528 61 223 0.0 0.0 0.00 0.00 0.00 99 1020.2
20220523103027 61 146 0.0 0.0 0.00 0.00 0.00 99 1020.5
20220523102527 61 330 0.9 1.7 0.00 0.00 0.00 99 1020.4
20220523102026 61 238 0.0 0.9 0.00 0.00 0.00 99 1020.4
20220523101526 61 220 0.0 0.0 0.00 0.00 0.00 99 1020.4
20220523101025 60 221 0.0 0.0 0.00 0.00 0.00 99 1020.8
20220523100524 61 60 0.9 0.9 0.00 0.00 0.00 99 1020.6
20220523100022 60 195 0.0 0.9 0.00 0.00 0.00 99 1020.7
20220523095521 60 166 0.0 0.0 0.00 0.00 0.00 99 1020.7
20220523095020 60 26 0.0 0.9 0.00 0.00 0.00 99 1020.7
20220523094518 60 222 0.0 0.0 0.00 0.00 0.00 99 1020.7
20220523094017 60 260 2.6 4.3 0.00 0.00 0.00 99 1020.8
20220523093517 60 288 0.9 1.7 0.00 0.00 0.00 99 1020.7
20220523093016 60 279 0.0 0.0 0.00 0.00 0.00 99 1020.6
20220523092515 60 265 0.9 0.9 0.00 0.00 0.00 99 1020.8
20220523092014 60 254 2.6 2.6 0.00 0.00 0.00 99 1020.5
20220523091512 60 319 0.9 1.7 0.00 0.00 0.00 99 1020.6
20220523091011 60 229 0.9 0.9 0.00 0.00 0.00 99 1020.7
20220523090509 60 269 0.0 0.0 0.00 0.00 0.00 99 1020.9
20220523090009 60 343 1.7 1.7 0.00 0.00 0.00 99 1020.8
20220523085509 60 245 0.9 0.9 0.00 0.00 0.00 99 1020.8
20220523085008 60 267 0.9 0.9 0.00 0.00 0.00 99 1021.1
20220523084507 60 243 0.9 1.7 0.00 0.00 0.00 99 1020.9
20220523084006 60 291 0.9 0.9 0.00 0.00 0.00 98 1021.0
20220523083505 60 342 0.9 1.7 0.00 0.00 0.00 98 1021.0
20220523083004 61 256 1.7 2.6 0.00 0.00 0.00 98 1021.1
20220523082505 61 310 0.9 0.9 0.00 0.00 0.00 98 1021.2
20220523082003 61 223 0.0 0.0 0.00 0.00 0.00 98 1021.2
20220523081502 61 255 0.0 0.9 0.00 0.00 0.00 98 1021.2
20220523081003 61 222 0.0 0.0 0.00 0.00 0.00 98 1021.3
20220523080501 61 327 0.9 1.7 0.00 0.00 0.00 97 1021.4
20220523080000 61 208 0.9 0.9 0.00 0.00 0.00 97 1021.4
20220523075459 61 224 0.0 0.0 0.00 0.00 0.00 97 1021.5
20220523074958 61 229 0.9 0.9 0.00 0.00 0.00 96 1021.5
20220523074456 61 229 0.0 0.0 0.00 0.00 0.00 96 1021.6
20220523073955 61 249 0.9 0.9 0.00 0.00 0.00 96 1021.6
20220523073454 60 197 0.0 0.0 0.00 0.00 0.00 96 1021.6
20220523072953 60 280 0.9 0.9 0.00 0.00 0.00 96 1021.7
20220523072452 60 335 0.9 1.7 0.00 0.00 0.00 95 1021.6
20220523071950 60 301 0.0 0.9 0.00 0.00 0.00 95 1021.7
20220523071448 60 352 0.9 1.7 0.00 0.00 0.00 95 1021.6
20220523070947 60 246 0.9 0.9 0.00 0.00 0.00 95 1021.8
20220523070446 60 284 0.9 0.9 0.00 0.00 0.00 95 1021.9
20220523065944 60 292 0.9 0.9 0.00 0.00 0.00 95 1021.8
20220523065443 60 233 0.9 0.9 0.00 0.00 0.00 96 1021.7
20220523064942 60 220 0.0 0.0 0.00 0.00 0.00 96 1021.8
20220523064441 60 222 0.0 0.9 0.00 0.00 0.00 96 1021.7
20220523063940 60 206 0.0 0.9 0.00 0.00 0.00 96 1021.6
20220523063439 60 223 0.0 0.0 0.00 0.00 0.00 96 1021.5
20220523062939 60 263 0.0 0.9 0.00 0.00 0.00 96 1021.4
20220523062438 60 84 0.0 0.0 0.00 0.00 0.00 96 1021.4
20220523061937 60 36 1.7 2.6 0.00 0.00 0.00 96 1021.3
20220523061436 60 67 1.7 1.7 0.00 0.00 0.00 96 1021.3
20220523060935 60 121 0.9 1.7 0.00 0.00 0.00 96 1021.5
20220523060434 59 186 0.0 0.0 0.00 0.00 0.00 96 1021.6
20220523055933 60 64 0.9 0.9 0.00 0.00 0.00 96 1021.8
20220523055433 60 134 1.7 1.7 0.00 0.00 0.00 96 1021.7
20220523054931 60 36 0.9 0.9 0.00 0.00 0.00 96 1021.7
20220523054431 60 335 1.7 2.6 0.00 0.00 0.00 95 1022.0
20220523053931 60 221 0.0 0.9 0.00 0.00 0.00 95 1022.0
20220523053429 60 210 0.0 0.9 0.00 0.00 0.00 95 1022.1
20220523052928 60 209 0.9 0.9 0.00 0.00 0.00 95 1022.0
20220523052427 60 295 0.0 0.9 0.00 0.00 0.00 94 1022.0
20220523051926 60 60 0.9 0.9 0.00 0.00 0.00 94 1022.0
20220523051424 60 243 1.7 1.7 0.00 0.00 0.00 94 1022.2
20220523050922 60 83 0.9 1.7 0.00 0.00 0.00 93 1022.3
20220523050422 60 156 0.0 0.9 0.00 0.00 0.00 94 1022.2
20220523045921 60 65 0.9 0.9 0.00 0.00 0.00 94 1022.3
20220523045419 60 181 0.0 0.9 0.00 0.00 0.00 94 1022.4
20220523044920 60 225 1.7 2.6 0.00 0.00 0.00 95 1022.3
20220523044419 60 229 0.0 0.0 0.00 0.00 0.00 95 1022.4
20220523043918 60 276 0.9 1.7 0.00 0.00 0.00 95 1022.1
20220523043416 60 172 0.9 1.7 0.00 0.00 0.00 95 1022.5
20220523042916 60 64 0.9 1.7 0.00 0.00 0.00 95 1022.2
20220523042417 60 55 0.0 0.9 0.00 0.00 0.00 95 1022.3
20220523041915 60 177 0.9 1.7 0.00 0.00 0.00 94 1022.3
20220523041413 60 73 0.9 1.7 0.00 0.00 0.00 94 1022.3
20220523040912 60 153 0.9 0.9 0.00 0.00 0.00 94 1022.4
20220523040412 60 224 0.0 0.9 0.00 0.00 0.00 94 1022.4
20220523035911 61 17 0.0 0.9 0.00 0.00 0.00 93 1022.7